Location: Plymouth
(43.7490°N, 87.9770°W)
Time: 18:15:23
(UTC-06:00)

Daily predictions for brighter satellites

Satellite Brightness Start Highest point End
(mag) Time Altitude Azimuth Time Altitude Azimuth Time Altitude Azimuth
ALOS 3.3 17:55:02 10° ESE 17:58:49 25° ENE 18:02:37 10° NNE
Cosmos 2333 Rocket 4.0 17:57:41 10° NNE 18:00:17 13° NE 18:02:53 10° ENE
SL-16 R/B 2.5 17:57:07 10° NNW 18:02:49 78° WSW 18:08:28 10° SSE
Cosmos 1340 3.2 18:02:14 10° N 18:05:45 35° ENE 18:09:15 10° SE
Okean 2 Rocket 3.5 18:01:31 10° SSW 18:05:57 69° W 18:10:23 10° N
FREGAT/IRIS 3.5 18:03:29 10° SE 18:06:14 30° ENE 18:09:01 10° N
Cosmos 1709 Rocket 4.1 18:07:43 10° SSE 18:13:43 53° E 18:19:40 10° NNE
Cosmos 1484 Rocket 4.4 18:12:05 10° S 18:15:50 41° W 18:19:34 10° NNW
Helios 1B rocket 4.4 18:18:13 11° E 18:18:13 11° E 18:18:48 10° ESE
Cosmos 2322 Rocket 3.0 18:13:42 10° NNW 18:19:11 56° WSW 18:24:39 10° S
Meteor 1-28 Rocket 3.4 18:15:52 10° N 18:19:40 80° WNW 18:23:29 10° SSW
USA 215 4.4 18:14:34 10° NE 18:20:27 37° NNW 18:26:21 10° W
Cosmos 1954 Rocket 4.1 18:15:51 10° S 18:20:53 55° ESE 18:26:00 10° NNE
Tiangong 2 3.2 18:20:14 10° W 18:22:41 22° SSW 18:25:07 10° SSE
HJ-1C 4.1 18:20:22 10° SE 18:23:24 32° ENE 18:26:27 10° N
SJ-6B 2.8 18:20:49 10° SSE 18:24:45 59° ENE 18:28:37 10° N
Genesis I 4.0 18:21:25 10° NNW 18:25:02 33° NE 18:28:04 13° ESE
Cosmos 2151 Rocket 3.6 18:20:35 10° S 18:25:04 89° ESE 18:29:39 10° N
Okean 1 Rocket 3.7 18:22:04 10° SSE 18:26:06 34° E 18:30:10 10° NNE
Meteor 1-19 Rocket 4.4 18:22:00 10° N 18:27:35 55° ENE 18:33:13 10° SSE
TSX-5 3.1 18:25:22 10° SSW 18:28:30 70° ESE 18:31:47 10° NNE
FENGYUN 3A 3.9 18:23:28 10° SE 18:28:39 49° ENE 18:33:52 10° N
Gbstr 26 Del rocket 3.3 18:31:04 10° SSW 18:34:38 38° SE 18:36:52 19° E
Cosmos 2322 3.7 18:29:49 10° NNW 18:35:34 71° ENE 18:41:14 10° SSE
Cosmos 1238 Rocket 2.0 18:34:01 10° N 18:37:00 62° E 18:39:56 10° SSE
NOAA 12 4.4 18:34:26 10° S 18:39:45 73° WSW 18:45:06 10° NNW
Cosmos 1025 Rocket 3.7 18:40:28 10° N 18:44:29 34° ENE 18:48:28 10° SE
Meteor 1-13 Rocket 4.2 18:39:05 10° N 18:44:40 85° E 18:50:19 10° S
GEOS 3 Rocket 3.9 18:40:17 10° NE 18:45:20 47° ESE 18:50:24 10° SSW
Cosmos 405 Rocket 4.4 18:42:39 10° NNE 18:45:00 18° ENE 18:45:00 18° ENE
CZ-2D R/B 3.9 18:43:32 16° SE 18:46:04 32° ENE 18:49:30 10° N
Okean 1-7 Rocket 3.7 18:46:19 10° N 18:50:46 53° ENE 18:55:09 10° SSE
COSMOS 2428 2.9 18:45:19 10° NNW 18:50:52 51° ENE 18:55:38 14° SE
Cosmos 2237 4.2 18:45:28 10° NNW 18:51:11 64° ENE 18:56:50 10° SE
H-2A R/B 2.8 18:47:42 10° SSE 18:51:16 48° ENE 18:54:54 10° N
Meteor 1-23 Rocket 4.4 18:45:40 10° N 18:51:19 51° ENE 18:56:54 10° SSE
Cosmos 1536 2.9 18:47:49 10° S 18:51:41 50° E 18:55:33 10° NNE
Meteor 2-4 Rocket 3.6 18:48:11 10° N 18:53:44 64° ENE 18:59:05 10° SSE
SL-19 R/B 4.3 18:48:18 10° SSE 18:53:56 72° ENE 19:00:00 10° NNW
Cosmos 2237 Rocket 3.5 18:50:15 10° N 18:54:36 22° NE 18:55:53 20° ENE
Cosmos 1633 2.9 18:52:27 10° SSW 18:56:06 68° W 18:59:48 10° N
Cosmos 1023 Rocket 4.4 18:52:06 10° SSW 18:57:11 88° ESE 19:02:22 10° NNE
SL-08 ROCKET BODY 4.5 18:52:51 10° S 18:58:51 57° E 19:04:55 10° NNE
Cosmos 1741 Rocket 3.9 18:59:15 10° S 19:04:23 62° ESE 19:09:33 10° NNE
Cosmos 2360 Rocket 2.9 19:04:29 10° NNW 19:10:01 56° WSW 19:15:32 10° S
Cosmos 2219 Rocket 2.6 19:06:32 10° NNW 19:11:51 42° ENE 19:13:35 33° E
Cosmos 2219 3.2 19:07:05 10° S 19:12:44 61° ESE 19:18:23 10° NNE
Cosmos 1570 Rocket 4.0 19:13:26 10° NNW 19:18:41 82° WSW 19:23:54 10° SSE
Meteor 1-11 Rocket 4.3 19:16:36 10° SSW 19:22:21 64° WNW 19:28:15 10° N
BREEZE-M DEB (TANK) 3.3 19:21:15 10° SW 19:23:47 35° SSW 19:23:47 35° SSW
Resurs 01 Rocket 2.2 19:22:41 10° S 19:27:01 56° W 19:31:22 10° NNW
Cosmos 1140 Rocket 4.3 19:22:51 10° SW 19:27:50 51° WNW 19:32:53 10° N
SL-16 R/B 3.8 19:24:04 10° N 19:27:20 18° NE 19:27:20 18° NE
Abrixas rocket 4.0 19:27:57 10° SW 19:29:39 25° SSW 19:29:39 25° SSW
BREEZE-M DEB (TANK) 3.6 19:28:42 10° WNW 19:32:04 87° SSW 19:35:01 36° ESE
ATLAS CENTAUR R/B 4.0 19:29:54 10° SSW 19:30:46 14° S 19:30:46 14° S
Spot 1 3.9 19:31:45 41° S 19:33:08 85° WSW 19:37:18 10° NNW
Cosmos 1610 Rocket 4.4 19:27:26 10° S 19:33:35 65° E 19:39:42 10° NNE
ALOS 3.8 19:31:46 10° SSW 19:36:04 37° W 19:40:25 10° NNW
Cosmos 468 Rocket 4.0 19:34:02 10° NNW 19:39:13 59° ENE 19:39:27 59° E
Cosmos 2327 Rocket 4.5 19:33:17 10° S 19:39:31 84° W 19:45:54 10° N
Spot 2 Rocket 4.5 19:37:09 10° S 19:41:59 47° W 19:46:54 10° NNW
Helios 1A 3.1 19:40:56 44° S 19:42:08 71° WSW 19:46:18 10° NNW
Cosmos 2333 Rocket 2.2 19:40:03 10° NNW 19:45:46 63° ENE 19:46:14 61° E
USA 229 DEB 3.8 19:44:22 10° NW 19:51:32 82° SW 19:54:32 39° SSE
USA 229 3.8 19:44:28 10° NW 19:51:38 83° SW 19:54:36 40° SSE
Helios 1B rocket 3.2 19:49:19 10° N 19:54:32 46° SW 19:57:34 10° SSW
Cosmos 1980 3.8 19:47:56 10° NNW 19:53:09 57° NE 19:53:09 57° NE
Cosmos 1814 Rocket 4.3 19:51:40 10° NNW 19:55:49 52° NNE 19:55:49 52° NNE
Okean 2 4.0 19:54:04 10° NNW 19:58:09 54° W 19:58:14 54° W
Envisat 3.0 19:58:41 73° NNE 19:58:41 73° NNE 20:03:21 10° NNW
ERS-1 Rocket 4.1 20:05:24 32° N 20:05:24 32° N 20:08:13 10° N
NOSS 3-1 (A) 4.2 19:56:54 10° NNW 20:04:10 52° NE 20:04:58 51° ENE
Cosmos 1892 Rocket 4.4 20:03:06 10° NNW 20:06:29 47° NW 20:06:29 47° NW
ATLAS 2AS CENTAUR R/B 4.2 20:02:39 10° NNW 20:09:19 27° NNE 20:10:18 26° NE
BREEZE-M DEB (TANK) 4.1 20:14:25 10° W 20:17:19 36° SW 20:17:19 36° SW
Nadezhda 3 Rocket 4.1 20:14:17 10° NNW 20:20:26 72° W 20:21:25 61° SSW
NOSS 3-1 (C) 3.9 20:16:20 10° NW 20:23:53 78° NE 20:24:22 75° E
Cosmos 2341 Rocket 4.5 20:26:53 51° N 20:26:53 51° N 20:31:32 10° N
Cosmos 2154 Rocket 4.4 20:24:46 10° SSW 20:31:03 63° W 20:37:22 10° N
Cosmos 2237 Rocket 3.0 20:33:33 10° NNW 20:37:45 49° NW 20:37:45 49° NW
Cosmos 2219 Rocket 3.8 20:50:49 10° NW 20:55:22 30° W 20:55:22 30° W
SL-16 R/B 4.1 21:07:08 10° NNW 21:09:14 24° NNW 21:09:14 24° NNW
Cosmos 2333 Rocket 4.5 21:25:25 10° NW 21:28:17 19° W 21:28:17 19° W
ATLAS 2AS CENTAUR R/B 4.4 21:53:41 10° NW 21:57:45 33° NNW 21:57:45 33° NNW
